Time,TemperatureF,DewpointF,PressureIn,WindDirection,WindDirectionDegrees,WindSpeedMPH,WindSpeedGustMPH,Humidity,HourlyPrecipIn,Conditions,Clouds,dailyrainin,SoftwareType,DateUTC
2013-04-11 00:03:00,52.0,48.0,29.89,North,360,5.0,-999.0,87,-99.99,,,-99.99,,2013-04-11 04:03:00,
2013-04-11 00:13:00,50.0,48.0,29.89,North,360,7.0,-999.0,93,-99.99,,,-99.99,,2013-04-11 04:13:00,
2013-04-11 00:22:00,50.0,48.0,29.90,North,10,9.0,-999.0,93,-99.99,,,-99.99,,2013-04-11 04:22:00,
2013-04-11 00:33:00,50.0,48.0,29.90,North,10,7.0,-999.0,93,-99.99,,,-99.99,,2013-04-11 04:33:00,
2013-04-11 00:43:00,50.0,48.0,29.91,North,10,7.0,-999.0,93,-99.99,,,-99.99,,2013-04-11 04:43:00,
2013-04-11 00:52:00,50.0,48.0,29.92,North,360,5.0,-999.0,93,-99.99,,,-99.99,,2013-04-11 04:52:00,
2013-04-11 01:02:00,50.0,48.0,29.92,North,360,6.0,-999.0,93,-99.99,,,-99.99,,2013-04-11 05:02:00,
2013-04-11 01:13:00,50.0,48.0,29.92,North,10,8.0,-999.0,93,-99.99,,,-99.99,,2013-04-11 05:13:00,
2013-04-11 01:22:00,50.0,48.0,29.90,North,10,6.0,-999.0,93,-99.99,,,-99.99,,2013-04-11 05:22:00,
2013-04-11 01:32:00,50.0,48.0,29.91,North,360,7.0,-999.0,93,-99.99,,,-99.99,,2013-04-11 05:32:00,
2013-04-11 01:42:00,50.0,48.0,29.91,North,360,8.0,-999.0,93,-99.99,,,-99.99,,2013-04-11 05:42:00,
2013-04-11 01:52:00,50.0,48.0,29.90,North,360,8.0,-999.0,93,-99.99,,,-99.99,,2013-04-11 05:52:00,
2013-04-11 02:02:00,50.0,48.0,29.90,North,360,10.0,18.0,93,-99.99,,,-99.99,,2013-04-11 06:02:00,
2013-04-11 02:12:00,48.0,48.0,29.90,North,360,7.0,18.0,100,-99.99,,,-99.99,,2013-04-11 06:12:00,
2013-04-11 02:22:00,48.0,48.0,29.90,North,360,7.0,-999.0,100,-99.99,,,-99.99,,2013-04-11 06:22:00,
2013-04-11 02:32:00,48.0,48.0,29.90,North,360,7.0,-999.0,100,-99.99,,,-99.99,,2013-04-11 06:32:00,
2013-04-11 02:42:00,48.0,46.0,29.90,North,360,8.0,-999.0,93,-99.99,,,-99.99,,2013-04-11 06:42:00,
2013-04-11 02:52:00,48.0,46.0,29.89,North,360,7.0,-999.0,93,-99.99,,,-99.99,,2013-04-11 06:52:00,
2013-04-11 03:02:00,48.0,46.0,29.89,North,10,9.0,-999.0,93,-99.99,,,-99.99,,2013-04-11 07:02:00,
2013-04-11 03:12:00,48.0,46.0,29.91,North,350,8.0,-999.0,93,-99.99,,,-99.99,,2013-04-11 07:12:00,
2013-04-11 03:22:00,48.0,46.0,29.91,North,360,6.0,-999.0,93,-99.99,,,-99.99,,2013-04-11 07:22:00,
2013-04-11 03:32:00,48.0,46.0,29.90,North,360,8.0,-999.0,93,-99.99,,,-99.99,,2013-04-11 07:32:00,
2013-04-11 03:43:00,48.0,46.0,29.91,North,350,9.0,-999.0,93,-99.99,,,-99.99,,2013-04-11 07:43:00,
2013-04-11 03:52:00,48.0,46.0,29.89,North,350,6.0,-999.0,93,-99.99,,,-99.99,,2013-04-11 07:52:00,
2013-04-11 04:03:00,48.0,46.0,29.89,North,360,7.0,-999.0,93,-99.99,,,-99.99,,2013-04-11 08:03:00,
2013-04-11 04:12:00,48.0,46.0,29.90,North,350,7.0,-999.0,93,-99.99,,,-99.99,,2013-04-11 08:12:00,
2013-04-11 04:22:00,48.0,46.0,29.91,NNW,340,3.0,-999.0,93,-99.99,,,-99.99,,2013-04-11 08:22:00,
2013-04-11 04:32:00,48.0,46.0,29.91,North,360,5.0,-999.0,93,-99.99,,,-99.99,,2013-04-11 08:32:00,
2013-04-11 04:42:00,48.0,46.0,29.91,North,350,5.0,-999.0,93,-99.99,,,-99.99,,2013-04-11 08:42:00,
2013-04-11 04:52:00,48.0,46.0,29.92,North,350,3.0,-999.0,93,-99.99,,,-99.99,,2013-04-11 08:52:00,
2013-04-11 05:02:00,48.0,46.0,29.93,NNW,330,5.0,-999.0,93,-99.99,,,-99.99,,2013-04-11 09:02:00,
2013-04-11 05:12:00,48.0,46.0,29.93,North,360,6.0,-999.0,93,-99.99,,,-99.99,,2013-04-11 09:12:00,
2013-04-11 05:22:00,48.0,45.0,29.94,North,350,5.0,-999.0,87,-99.99,,,-99.99,,2013-04-11 09:22:00,
2013-04-11 05:33:00,48.0,45.0,29.94,North,350,5.0,-999.0,87,-99.99,,,-99.99,,2013-04-11 09:33:00,
2013-04-11 05:43:00,48.0,45.0,29.94,North,350,5.0,-999.0,87,-99.99,,,-99.99,,2013-04-11 09:43:00,
2013-04-11 05:52:00,48.0,45.0,29.97,NNW,340,5.0,-999.0,87,-99.99,,,-99.99,,2013-04-11 09:52:00,
2013-04-11 06:02:00,48.0,45.0,29.97,NNW,340,6.0,-999.0,87,-99.99,,,-99.99,,2013-04-11 10:02:00,
2013-04-11 06:13:00,48.0,45.0,29.97,North,350,6.0,-999.0,87,-99.99,,,-99.99,,2013-04-11 10:13:00,
2013-04-11 06:23:00,48.0,45.0,29.97,North,10,7.0,-999.0,87,-99.99,,,-99.99,,2013-04-11 10:23:00,
2013-04-11 06:32:00,48.0,45.0,29.98,North,360,6.0,-999.0,87,-99.99,,,-99.99,,2013-04-11 10:32:00,
2013-04-11 06:42:00,48.0,45.0,29.98,North,360,6.0,-999.0,87,-99.99,,,-99.99,,2013-04-11 10:42:00,
2013-04-11 06:52:00,48.0,45.0,29.99,North,10,6.0,-999.0,87,-99.99,,,-99.99,,2013-04-11 10:52:00,
2013-04-11 07:03:00,48.0,43.0,29.99,North,360,6.0,16.0,81,-99.99,,,-99.99,,2013-04-11 11:03:00,
2013-04-11 07:12:00,48.0,43.0,29.99,North,10,9.0,-999.0,81,-99.99,,,-99.99,,2013-04-11 11:12:00,
2013-04-11 07:23:00,48.0,43.0,29.98,North,10,10.0,-999.0,81,-99.99,,,-99.99,,2013-04-11 11:23:00,
2013-04-11 07:32:00,48.0,43.0,29.97,North,360,10.0,-999.0,81,-99.99,,,-99.99,,2013-04-11 11:32:00,
2013-04-11 07:42:00,48.0,43.0,29.97,North,360,9.0,-999.0,81,-99.99,,,-99.99,,2013-04-11 11:42:00,
2013-04-11 07:52:00,48.0,43.0,29.98,North,10,8.0,-999.0,81,-99.99,,,-99.99,,2013-04-11 11:52:00,
2013-04-11 08:02:00,48.0,43.0,29.98,North,360,10.0,-999.0,81,-99.99,,,-99.99,,2013-04-11 12:02:00,
2013-04-11 08:13:00,48.0,41.0,29.99,North,10,7.0,-999.0,76,-99.99,,,-99.99,,2013-04-11 12:13:00,
2013-04-11 08:22:00,48.0,39.0,30.00,North,360,8.0,-999.0,70,-99.99,,,-99.99,,2013-04-11 12:22:00,
2013-04-11 08:32:00,48.0,39.0,30.01,North,360,7.0,-999.0,70,-99.99,,,-99.99,,2013-04-11 12:32:00,
2013-04-11 08:43:00,48.0,39.0,30.01,North,360,10.0,-999.0,70,-99.99,,,-99.99,,2013-04-11 12:43:00,
2013-04-11 08:52:00,48.0,39.0,30.01,North,360,8.0,-999.0,70,-99.99,,,-99.99,,2013-04-11 12:52:00,
2013-04-11 09:02:00,48.0,39.0,30.01,North,10,10.0,-999.0,70,-99.99,,,-99.99,,2013-04-11 13:02:00,
2013-04-11 09:13:00,48.0,39.0,30.01,North,360,8.0,-999.0,70,-99.99,,,-99.99,,2013-04-11 13:13:00,
2013-04-11 09:23:00,48.0,37.0,30.01,NNE,20,12.0,-999.0,66,-99.99,,,-99.99,,2013-04-11 13:23:00,
2013-04-11 09:32:00,48.0,36.0,30.02,North,10,10.0,-999.0,61,-99.99,,,-99.99,,2013-04-11 13:32:00,
2013-04-11 09:43:00,48.0,36.0,30.02,North,10,10.0,-999.0,61,-99.99,,,-99.99,,2013-04-11 13:43:00,
2013-04-11 09:53:00,48.0,36.0,30.02,North,350,10.0,17.0,61,-99.99,,,-99.99,,2013-04-11 13:53:00,
2013-04-11 10:03:00,48.0,36.0,30.02,North,350,8.0,-999.0,61,-99.99,,,-99.99,,2013-04-11 14:03:00,
2013-04-11 10:12:00,48.0,36.0,30.04,North,350,13.0,16.0,61,-99.99,,,-99.99,,2013-04-11 14:12:00,
2013-04-11 10:22:00,48.0,34.0,30.04,NNW,340,8.0,-999.0,57,-99.99,,,-99.99,,2013-04-11 14:22:00,
2013-04-11 10:32:00,48.0,34.0,30.05,North,360,12.0,-999.0,57,-99.99,,,-99.99,,2013-04-11 14:32:00,
2013-04-11 10:42:00,46.0,34.0,30.06,North,10,8.0,-999.0,61,-99.99,,,-99.99,,2013-04-11 14:42:00,
2013-04-11 10:52:00,48.0,34.0,30.05,NNE,20,10.0,17.0,57,-99.99,,,-99.99,,2013-04-11 14:52:00,
2013-04-11 11:02:00,48.0,34.0,30.05,North,360,13.0,18.0,57,-99.99,,,-99.99,,2013-04-11 15:02:00,
2013-04-11 11:12:00,46.0,32.0,30.05,North,350,14.0,20.0,57,-99.99,,,-99.99,,2013-04-11 15:12:00,
2013-04-11 11:22:00,46.0,32.0,30.06,NNW,340,9.0,-999.0,57,-99.99,,,-99.99,,2013-04-11 15:22:00,
2013-04-11 11:32:00,46.0,32.0,30.07,North,10,12.0,18.0,57,-99.99,,,-99.99,,2013-04-11 15:32:00,
2013-04-11 11:43:00,46.0,32.0,30.07,North,360,12.0,17.0,57,-99.99,,,-99.99,,2013-04-11 15:43:00,
2013-04-11 11:52:00,46.0,32.0,30.07,North,360,7.0,-999.0,57,-99.99,,,-99.99,,2013-04-11 15:52:00,
2013-04-11 12:02:00,46.0,32.0,30.07,NNE,20,12.0,-999.0,57,-99.99,,,-99.99,,2013-04-11 16:02:00,
2013-04-11 12:13:00,48.0,32.0,30.09,North,350,12.0,16.0,53,-99.99,,,-99.99,,2013-04-11 16:13:00,
2013-04-11 12:23:00,46.0,30.0,30.10,North,10,10.0,-999.0,52,-99.99,,,-99.99,,2013-04-11 16:23:00,
2013-04-11 12:32:00,46.0,30.0,30.10,North,360,12.0,17.0,52,-99.99,,,-99.99,,2013-04-11 16:32:00,
2013-04-11 12:42:00,46.0,30.0,30.09,North,360,12.0,17.0,52,-99.99,,,-99.99,,2013-04-11 16:42:00,
2013-04-11 12:52:00,46.0,30.0,30.08,NNE,20,10.0,16.0,52,-99.99,,,-99.99,,2013-04-11 16:52:00,
2013-04-11 13:02:00,46.0,30.0,30.09,North,10,10.0,-999.0,52,-99.99,,,-99.99,,2013-04-11 17:02:00,
2013-04-11 13:13:00,48.0,30.0,30.08,North,360,10.0,18.0,49,-99.99,,,-99.99,,2013-04-11 17:13:00,
2013-04-11 13:23:00,46.0,30.0,30.09,North,360,13.0,17.0,52,-99.99,,,-99.99,,2013-04-11 17:23:00,
2013-04-11 13:33:00,46.0,32.0,30.09,North,360,10.0,18.0,57,-99.99,,,-99.99,,2013-04-11 17:33:00,
2013-04-11 13:43:00,46.0,34.0,30.08,North,350,12.0,-999.0,61,-99.99,,,-99.99,,2013-04-11 17:43:00,
2013-04-11 13:52:00,48.0,34.0,30.08,North,10,14.0,-999.0,57,-99.99,,,-99.99,,2013-04-11 17:52:00,
2013-04-11 14:03:00,48.0,34.0,30.09,North,360,14.0,20.0,57,-99.99,,,-99.99,,2013-04-11 18:03:00,
2013-04-11 14:13:00,48.0,32.0,30.09,North,10,14.0,21.0,53,-99.99,,,-99.99,,2013-04-11 18:13:00,
2013-04-11 14:23:00,48.0,30.0,30.09,North,360,10.0,20.0,49,-99.99,,,-99.99,,2013-04-11 18:23:00,
2013-04-11 14:33:00,48.0,30.0,30.07,North,10,12.0,18.0,49,-99.99,,,-99.99,,2013-04-11 18:33:00,
2013-04-11 14:42:00,48.0,32.0,30.08,North,10,10.0,18.0,53,-99.99,,,-99.99,,2013-04-11 18:42:00,
2013-04-11 14:52:00,48.0,30.0,30.07,North,360,15.0,22.0,49,-99.99,,,-99.99,,2013-04-11 18:52:00,
2013-04-11 15:04:00,48.0,30.0,30.07,North,10,13.0,22.0,49,-99.99,,,-99.99,,2013-04-11 19:04:00,
2013-04-11 15:14:00,48.0,30.0,30.07,North,350,13.0,20.0,49,-99.99,,,-99.99,,2013-04-11 19:14:00,
2013-04-11 15:22:00,48.0,30.0,30.07,North,10,12.0,-999.0,49,-99.99,,,-99.99,,2013-04-11 19:22:00,
2013-04-11 15:32:00,48.0,30.0,30.07,North,360,12.0,18.0,49,-99.99,,,-99.99,,2013-04-11 19:32:00,
2013-04-11 15:43:00,48.0,30.0,30.07,North,350,12.0,18.0,49,-99.99,,,-99.99,,2013-04-11 19:43:00,
2013-04-11 15:52:00,48.0,30.0,30.07,NNW,340,10.0,16.0,49,-99.99,,,-99.99,,2013-04-11 19:52:00,
2013-04-11 16:03:00,48.0,28.0,30.08,North,360,12.0,17.0,46,-99.99,,,-99.99,,2013-04-11 20:03:00,
2013-04-11 16:13:00,46.0,28.0,30.07,North,350,8.0,-999.0,49,-99.99,,,-99.99,,2013-04-11 20:13:00,
2013-04-11 16:22:00,46.0,28.0,30.07,North,10,12.0,17.0,49,-99.99,,,-99.99,,2013-04-11 20:22:00,
2013-04-11 16:33:00,46.0,28.0,30.07,North,360,13.0,-999.0,49,-99.99,,,-99.99,,2013-04-11 20:33:00,
2013-04-11 16:43:00,46.0,28.0,30.07,North,360,7.0,16.0,49,-99.99,,,-99.99,,2013-04-11 20:43:00,
2013-04-11 16:52:00,46.0,28.0,30.07,North,360,7.0,-999.0,49,-99.99,,,-99.99,,2013-04-11 20:52:00,
2013-04-11 17:03:00,46.0,28.0,30.07,North,10,13.0,17.0,49,-99.99,,,-99.99,,2013-04-11 21:03:00,
2013-04-11 17:12:00,45.0,28.0,30.07,North,10,12.0,18.0,52,-99.99,,,-99.99,,2013-04-11 21:12:00,
2013-04-11 17:22:00,45.0,28.0,30.07,North,360,13.0,21.0,52,-99.99,,,-99.99,,2013-04-11 21:22:00,
2013-04-11 17:33:00,45.0,28.0,30.08,North,360,13.0,22.0,52,-99.99,,,-99.99,,2013-04-11 21:33:00,
2013-04-11 17:42:00,45.0,28.0,30.08,North,10,10.0,21.0,52,-99.99,,,-99.99,,2013-04-11 21:42:00,
2013-04-11 17:53:00,45.0,28.0,30.09,North,10,12.0,16.0,52,-99.99,,,-99.99,,2013-04-11 21:53:00,
2013-04-11 18:03:00,45.0,28.0,30.09,North,350,9.0,-999.0,52,-99.99,,,-99.99,,2013-04-11 22:03:00,
2013-04-11 18:13:00,43.0,28.0,30.10,North,10,14.0,20.0,56,-99.99,,,-99.99,,2013-04-11 22:13:00,
2013-04-11 18:23:00,43.0,30.0,30.10,North,10,12.0,21.0,60,-99.99,,,-99.99,,2013-04-11 22:23:00,
2013-04-11 18:33:00,43.0,28.0,30.10,North,360,13.0,20.0,56,-99.99,,,-99.99,,2013-04-11 22:33:00,
2013-04-11 18:44:00,41.0,28.0,30.10,North,350,10.0,20.0,60,-99.99,,,-99.99,,2013-04-11 22:44:00,
2013-04-11 18:52:00,41.0,30.0,30.11,North,10,6.0,10.0,65,-99.99,,,-99.99,,2013-04-11 22:52:00,
2013-04-11 19:03:00,41.0,30.0,30.11,North,360,10.0,-999.0,65,-99.99,,,-99.99,,2013-04-11 23:03:00,
2013-04-11 19:13:00,41.0,28.0,30.10,North,360,10.0,-999.0,60,-99.99,,,-99.99,,2013-04-11 23:13:00,
2013-04-11 19:23:00,41.0,30.0,30.11,North,10,10.0,-999.0,65,-99.99,,,-99.99,,2013-04-11 23:23:00,
2013-04-11 19:33:00,39.0,30.0,30.10,North,360,10.0,-999.0,69,-99.99,,,-99.99,,2013-04-11 23:33:00,
2013-04-11 19:42:00,39.0,30.0,30.10,North,10,9.0,-999.0,69,-99.99,,,-99.99,,2013-04-11 23:42:00,
2013-04-11 19:53:00,39.0,32.0,30.10,North,10,7.0,-999.0,75,-99.99,,,-99.99,,2013-04-11 23:53:00,
2013-04-11 20:02:00,39.0,34.0,30.10,NNE,20,8.0,-999.0,80,-99.99,,,-99.99,,2013-04-12 00:02:00,
2013-04-11 20:12:00,39.0,34.0,30.11,North,350,9.0,-999.0,80,-99.99,,,-99.99,,2013-04-12 00:12:00,
2013-04-11 20:22:00,39.0,32.0,30.11,North,360,9.0,-999.0,75,-99.99,,,-99.99,,2013-04-12 00:22:00,
2013-04-11 20:32:00,39.0,32.0,30.12,North,10,10.0,-999.0,75,-99.99,,,-99.99,,2013-04-12 00:32:00,
2013-04-11 20:42:00,39.0,34.0,30.12,North,10,7.0,-999.0,80,-99.99,,,-99.99,,2013-04-12 00:42:00,
2013-04-11 20:52:00,37.0,34.0,30.13,North,10,7.0,-999.0,86,-99.99,,,-99.99,,2013-04-12 00:52:00,
2013-04-11 21:02:00,37.0,34.0,30.13,North,10,7.0,-999.0,86,-99.99,,,-99.99,,2013-04-12 01:02:00,
2013-04-11 21:12:00,37.0,34.0,30.12,NNE,20,8.0,-999.0,86,-99.99,,,-99.99,,2013-04-12 01:12:00,
2013-04-11 21:22:00,37.0,34.0,30.13,North,360,8.0,-999.0,86,-99.99,,,-99.99,,2013-04-12 01:22:00,
2013-04-11 21:32:00,37.0,34.0,30.14,North,10,8.0,-999.0,86,-99.99,,,-99.99,,2013-04-12 01:32:00,
2013-04-11 21:42:00,37.0,34.0,30.14,North,360,9.0,-999.0,86,-99.99,,,-99.99,,2013-04-12 01:42:00,
2013-04-11 21:52:00,37.0,34.0,30.15,North,360,8.0,-999.0,86,-99.99,,,-99.99,,2013-04-12 01:52:00,
2013-04-11 22:03:00,37.0,34.0,30.15,North,10,8.0,-999.0,86,-99.99,,,-99.99,,2013-04-12 02:03:00,
2013-04-11 22:12:00,37.0,34.0,30.15,North,360,6.0,-999.0,86,-99.99,,,-99.99,,2013-04-12 02:12:00,
2013-04-11 22:22:00,37.0,34.0,30.15,North,360,8.0,-999.0,86,-99.99,,,-99.99,,2013-04-12 02:22:00,
2013-04-11 22:32:00,37.0,36.0,30.15,North,360,5.0,-999.0,93,-99.99,,,-99.99,,2013-04-12 02:32:00,
2013-04-11 22:42:00,37.0,36.0,30.15,North,10,6.0,-999.0,93,-99.99,,,-99.99,,2013-04-12 02:42:00,
2013-04-11 22:52:00,37.0,36.0,30.15,North,10,6.0,-999.0,93,-99.99,,,-99.99,,2013-04-12 02:52:00,
2013-04-11 23:02:00,36.0,36.0,30.15,NNE,20,3.0,-999.0,100,-99.99,,,-99.99,,2013-04-12 03:02:00,
2013-04-11 23:12:00,36.0,36.0,30.14,North,10,6.0,-999.0,100,-99.99,,,-99.99,,2013-04-12 03:12:00,
2013-04-11 23:22:00,36.0,36.0,30.15,NNE,20,5.0,-999.0,100,-99.99,,,-99.99,,2013-04-12 03:22:00,
2013-04-11 23:33:00,36.0,36.0,30.14,NNE,20,6.0,-999.0,100,-99.99,,,-99.99,,2013-04-12 03:33:00,
2013-04-11 23:43:00,36.0,36.0,30.14,North,10,5.0,-999.0,100,-99.99,,,-99.99,,2013-04-12 03:43:00,
2013-04-11 23:52:00,36.0,36.0,30.13,North,360,6.0,-999.0,100,-99.99,,,-99.99,,2013-04-12 03:52:00,